TIME,�g�[�{�C���[-���� [L],�t���O,�����{�C���[-���� [L],�t���O,�g�[�{�C���[-���� [MJ/h],�t���O,�����{�C���[-���� [MJ/h],�t���O
2004/4/1 0:00,0,0,0,0,0,0,0,0
2004/4/1 0:15,0,0,0,0,0,0,0,0
2004/4/1 0:30,0,0,0,0,0,0,0,0
2004/4/1 0:45,0,0,0,0,0,0,0,0
2004/4/1 1:00,0,0,0,0,0,0,0,0
2004/4/1 1:15,0,0,0,0,0,0,0,0
2004/4/1 1:30,0,0,0,0,0,0,0,0
2004/4/1 1:45,0,0,0,0,0,0,0,0
2004/4/1 2:00,0,0,0,0,0,0,0,0
2004/4/1 2:15,0,0,0,0,0,0,0,0
2004/4/1 2:30,0,0,0,0,0,0,0,0
2004/4/1 2:45,0,0,0,0,0,0,0,0
2004/4/1 3:00,0,0,0,0,0,0,0,0
2004/4/1 3:15,0,0,0,0,0,0,0,0
2004/4/1 3:30,0,0,0,0,0,0,0,0
2004/4/1 3:45,0,0,0,0,0,0,0,0
2004/4/1 4:00,0,0,0,0,0,0,0,0
2004/4/1 4:15,0,0,0,0,0,0,0,0
2004/4/1 4:30,0,0,0,0,0,0,0,0
2004/4/1 4:45,0,0,0,0,0,0,0,0
2004/4/1 5:00,0,0,0,0,0,0,0,0
2004/4/1 5:15,0,0,0,0,0,0,0,0
2004/4/1 5:30,0,0,0,0,0,0,0,0
2004/4/1 5:45,0,0,0,0,0,0,0,0
2004/4/1 6:00,0,0,0,0,0,0,0,0
2004/4/1 6:15,0,0,0,0,0,0,0,0
2004/4/1 6:30,0,0,0,0,0,0,0,0
2004/4/1 6:45,0,0,0,0,0,0,0,0
2004/4/1 7:00,0.001288,0,0.366275,0,0.1890784,0,53.76917,0
2004/4/1 7:15,0.001771,0,0.580888,0,0.2599828,0,85.2743584,0
2004/4/1 7:30,0.000161,0,0.083559,0,0.0236348,0,12.2664612,0
2004/4/1 7:45,0,0,0,0,0,0,0,0
2004/4/1 8:00,0,0,0,0,0,0,0,0
2004/4/1 8:15,0,0,0,0,0,0,0,0
2004/4/1 8:30,0,0,0,0,0,0,0,0
2004/4/1 8:45,0,0,0,0,0,0,0,0
2004/4/1 9:00,0,0,0,0,0,0,0,0
2004/4/1 9:15,0,0,0,0,0,0,0,0
2004/4/1 9:30,0,0,0,0,0,0,0,0
2004/4/1 9:45,0,0,0,0,0,0,0,0
2004/4/1 10:00,0,0,0,0,0,0,0,0
2004/4/1 10:15,0,0,0,0,0,0,0,0
2004/4/1 10:30,0,0,0,0,0,0,0,0
2004/4/1 10:45,0,0,0,0,0,0,0,0
2004/4/1 11:00,0,0,0,0,0,0,0,0
2004/4/1 11:15,0,0,0,0,0,0,0,0
2004/4/1 11:30,0,0,0,0,0,0,0,0
2004/4/1 11:45,0,0,0,0,0,0,0,0
2004/4/1 12:00,0,0,0,0,0,0,0,0
2004/4/1 12:15,0,0,0,0,0,0,0,0
2004/4/1 12:30,0,0,0,0,0,0,0,0
2004/4/1 12:45,0,0,0,0,0,0,0,0
2004/4/1 13:00,0,0,0,0,0,0,0,0
2004/4/1 13:15,0,0,0,0,0,0,0,0
2004/4/1 13:30,0,0,0,0,0,0,0,0
2004/4/1 13:45,0,0,0,0,0,0,0,0
2004/4/1 14:00,0,0,0,0,0,0,0,0
2004/4/1 14:15,0,0,0,0,0,0,0,0
2004/4/1 14:30,0,0,0,0,0,0,0,0
2004/4/1 14:45,0,0,0,0,0,0,0,0
2004/4/1 15:00,0,0,0,0,0,0,0,0
2004/4/1 15:15,0,0,0,0,0,0,0,0
2004/4/1 15:30,0,0,0,0,0,0,0,0
2004/4/1 15:45,0,0,0,0,0,0,0,0
2004/4/1 16:00,0,0,0,0,0,0,0,0
2004/4/1 16:15,0,0,0,0,0,0,0,0
2004/4/1 16:30,0,0,0,0,0,0,0,0
2004/4/1 16:45,0,0,0,0,0,0,0,0
2004/4/1 17:00,0,0,0,0,0,0,0,0
2004/4/1 17:15,0,0,0,0,0,0,0,0
2004/4/1 17:30,0,0,0,0,0,0,0,0
2004/4/1 17:45,0,0,0,0,0,0,0,0
2004/4/1 18:00,0,0,0,0,0,0,0,0
2004/4/1 18:15,0,0,0,0,0,0,0,0
2004/4/1 18:30,0,0,0,0,0,0,0,0
2004/4/1 18:45,0,0,0,0,0,0,0,0
2004/4/1 19:00,0,0,0,0,0,0,0,0
2004/4/1 19:15,0,0,0,0,0,0,0,0
2004/4/1 19:30,0,0,0,0,0,0,0,0
2004/4/1 19:45,0,0,0,0,0,0,0,0
2004/4/1 20:00,0,0,0,0,0,0,0,0
2004/4/1 20:15,0,0,0,0,0,0,0,0
2004/4/1 20:30,0,0,0,0,0,0,0,0
2004/4/1 20:45,0,0,0,0,0,0,0,0
2004/4/1 21:00,0,0,0,0,0,0,0,0
2004/4/1 21:15,0,0,0,0,0,0,0,0
2004/4/1 21:30,0,0,0,0,0,0,0,0
2004/4/1 21:45,0,0,0,0,0,0,0,0
2004/4/1 22:00,0,0,0,0,0,0,0,0
2004/4/1 22:15,0.095634,0,0,0,14.0390712,0,0,0
2004/4/1 22:30,0.062629,0,0,0,9.1939372,0,0,0
2004/4/1 22:45,0.05313,0,0,0,7.799484,0,0,0
2004/4/1 23:00,0.061502,0,0,0,9.0284936,0,0,0
2004/4/1 23:15,0.06279,0,0,0,9.217572,0,0,0
2004/4/1 23:30,0.057155,0,0,0,8.390354,0,0,0
2004/4/1 23:45,0.061019,0,0,0,8.9575892,0,0,0
2004/4/2 0:00,0.050876,0,0,0,7.4685968,0,0,0
2004/4/2 0:15,0,0,0,0,0,0,0,0
2004/4/2 0:30,0,0,0,0,0,0,0,0
2004/4/2 0:45,0,0,0,0,0,0,0,0
2004/4/2 1:00,0,0,0,0,0,0,0,0
2004/4/2 1:15,0,0,0,0,0,0,0,0
2004/4/2 1:30,0,0,0,0,0,0,0,0
2004/4/2 1:45,0,0,0,0,0,0,0,0
2004/4/2 2:00,0,0,0,0,0,0,0,0
2004/4/2 2:15,0,0,0,0,0,0,0,0
2004/4/2 2:30,0,0,0,0,0,0,0,0
2004/4/2 2:45,0,0,0,0,0,0,0,0
2004/4/2 3:00,0,0,0,0,0,0,0,0
2004/4/2 3:15,0,0,0,0,0,0,0,0
2004/4/2 3:30,0,0,0,0,0,0,0,0
2004/4/2 3:45,0,0,0,0,0,0,0,0
2004/4/2 4:00,0,0,0,0,0,0,0,0
2004/4/2 4:15,0,0,0,0,0,0,0,0
2004/4/2 4:30,0,0,0,0,0,0,0,0
2004/4/2 4:45,0,0,0,0,0,0,0,0
2004/4/2 5:00,0,0,0,0,0,0,0,0
2004/4/2 5:15,0,0,0,0,0,0,0,0
2004/4/2 5:30,0,0,0,0,0,0,0,0
2004/4/2 5:45,0,0,0,0,0,0,0,0
2004/4/2 6:00,0,0,0,0,0,0,0,0
2004/4/2 6:15,0,0,0,0,0,0,0,0
2004/4/2 6:30,0.051359,0,0.420854,0,7.5395012,0,61.7813672,0
2004/4/2 6:45,0.071967,0,0.473823,0,10.5647556,0,69.5572164,0
2004/4/2 7:00,0.06279,0,0,0,9.217572,0,0,0
2004/4/2 7:15,0.060214,0,0.311696,0,8.8394152,0,45.7569728,0
2004/4/2 7:30,0.062629,0,0.040894,0,9.1939372,0,6.0032392,0
2004/4/2 7:45,0.063595,0,0,0,9.335746,0,0,0
2004/4/2 8:00,0.063917,0,0.066815,0,9.3830156,0,9.808442,0
2004/4/2 8:15,0.054901,0,0.054901,0,8.0594668,0,8.0594668,0
2004/4/2 8:30,0.062468,0,0,0,9.1703024,0,0,0
2004/4/2 8:45,0.063434,0,0,0,9.3121112,0,0,0
2004/4/2 9:00,0.059087,0,0,0,8.6739716,0,0,0
2004/4/2 9:15,0.058121,0,0,0,8.5321628,0,0,0
2004/4/2 9:30,0.062629,0,0,0,9.1939372,0,0,0
2004/4/2 9:45,0.062146,0,0,0,9.1230328,0,0,0
2004/4/2 10:00,0.061502,0,0,0,9.0284936,0,0,0
2004/4/2 10:15,0.057477,0,0,0,8.4376236,0,0,0
2004/4/2 10:30,0.060053,0,0,0,8.8157804,0,0,0
2004/4/2 10:45,0.063595,0,0,0,9.335746,0,0,0
2004/4/2 11:00,0.058282,0,0,0,8.5557976,0,0,0
2004/4/2 11:15,0.058604,0,0,0,8.6030672,0,0,0
2004/4/2 11:30,0.062468,0,0,0,9.1703024,0,0,0
2004/4/2 11:45,0.05635,0,0,0,8.27218,0,0,0
2004/4/2 12:00,0.061824,0,0,0,9.0757632,0,0,0
2004/4/2 12:15,0.061341,0,0,0,9.0048588,0,0,0
2004/4/2 12:30,0.052969,0,0,0,7.7758492,0,0,0
2004/4/2 12:45,0.031556,0,0,0,4.6324208,0,0,0
2004/4/2 13:00,0.015778,0,0,0,2.3162104,0,0,0
2004/4/2 13:15,0,0,0,0,0,0,0,0
2004/4/2 13:30,0,0,0,0,0,0,0,0
2004/4/2 13:45,0,0,0,0,0,0,0,0
2004/4/2 14:00,0,0,0,0,0,0,0,0
2004/4/2 14:15,0,0,0,0,0,0,0,0
2004/4/2 14:30,0,0,0,0,0,0,0,0
2004/4/2 14:45,0,0,0,0,0,0,0,0
2004/4/2 15:00,0,0,0,0,0,0,0,0
2004/4/2 15:15,0,0,0,0,0,0,0,0
2004/4/2 15:30,0,0,0,0,0,0,0,0
2004/4/2 15:45,0,0,0,0,0,0,0,0
2004/4/2 16:00,0,0,0,0,0,0,0,0
2004/4/2 16:15,0,0,0,0,0,0,0,0
2004/4/2 16:30,0,0,0,0,0,0,0,0
2004/4/2 16:45,0,0,0,0,0,0,0,0
2004/4/2 17:00,0,0,0,0,0,0,0,0
2004/4/2 17:15,0,0,0,0,0,0,0,0
2004/4/2 17:30,0,0,0,0,0,0,0,0
2004/4/2 17:45,0,0,0,0,0,0,0,0
2004/4/2 18:00,0,0,0,0,0,0,0,0
2004/4/2 18:15,0,0,0,0,0,0,0,0
2004/4/2 18:30,0,0,0,0,0,0,0,0
2004/4/2 18:45,0,0,0,0,0,0,0,0
2004/4/2 19:00,0,0,0,0,0,0,0,0
2004/4/2 19:15,0,0,0,0,0,0,0,0
2004/4/2 19:30,0.04669,0,0,0,6.854092,0,0,0
2004/4/2 19:45,0,0,0,0,0,0,0,0
2004/4/2 20:00,0,0,0,0,0,0,0,0
2004/4/2 20:15,0,0,0,0,0,0,0,0
2004/4/2 20:30,0,0,0,0,0,0,0,0
2004/4/2 20:45,0,0,0,0,0,0,0,0
2004/4/2 21:00,0,0,0,0,0,0,0,0
2004/4/2 21:15,0,0,0,0,0,0,0,0
2004/4/2 21:30,0,0,0,0,0,0,0,0
2004/4/2 21:45,0,0,0,0,0,0,0,0
2004/4/2 22:00,0,0,0,0,0,0,0,0
2004/4/2 22:15,0,0,0,0,0,0,0,0
2004/4/2 22:30,0.089838,0,0,0,13.1882184,0,0,0
2004/4/2 22:45,0.059892,0,0,0,8.7921456,0,0,0
2004/4/2 23:00,0.062468,0,0,0,9.1703024,0,0,0
2004/4/2 23:15,0.053452,0,0,0,7.8467536,0,0,0
2004/4/2 23:30,0.005796,0,0.139909,0,0.8508528,0,20.5386412,0
2004/4/2 23:45,0,0,0,0,0,0,0,0
2004/4/3 0:00,0,0,0,0,0,0,0,0
2004/4/3 0:15,0,0,0,0,0,0,0,0
2004/4/3 0:30,0.073416,0,0,0,10.7774688,0,0,0
2004/4/3 0:45,0.056511,0,0,0,8.2958148,0,0,0
2004/4/3 1:00,0.054418,0,0,0,7.9885624,0,0,0
2004/4/3 1:15,0,0,0,0,0,0,0,0
2004/4/3 1:30,0,0,0,0,0,0,0,0
2004/4/3 1:45,0,0,0,0,0,0,0,0
2004/4/3 2:00,0,0,0,0,0,0,0,0
2004/4/3 2:15,0,0,0,0,0,0,0,0
2004/4/3 2:30,0,0,0,0,0,0,0,0
2004/4/3 2:45,0,0,0,0,0,0,0,0
2004/4/3 3:00,0,0,0,0,0,0,0,0
2004/4/3 3:15,0,0,0,0,0,0,0,0
2004/4/3 3:30,0,0,0,0,0,0,0,0
2004/4/3 3:45,0,0,0,0,0,0,0,0
2004/4/3 4:00,0,0,0,0,0,0,0,0
2004/4/3 4:15,0,0,0,0,0,0,0,0
2004/4/3 4:30,0,0,0,0,0,0,0,0
2004/4/3 4:45,0,0,0,0,0,0,0,0
2004/4/3 5:00,0,0,0,0,0,0,0,0
2004/4/3 5:15,0,0,0,0,0,0,0,0
2004/4/3 5:30,0,0,0,0,0,0,0,0
2004/4/3 5:45,0,0,0,0,0,0,0,0
2004/4/3 6:00,0,0,0,0,0,0,0,0
2004/4/3 6:15,0,0,0,0,0,0,0,0
2004/4/3 6:30,0,0,0,0,0,0,0,0
2004/4/3 6:45,0,0,0,0,0,0,0,0
2004/4/3 7:00,0,0,0,0,0,0,0,0
2004/4/3 7:15,0.014007,0,0,0,2.0562276,0,0,0
2004/4/3 7:30,0.093219,0,0,0,13.6845492,0,0,0
2004/4/3 7:45,0.05957,0,0,0,8.744876,0,0,0
2004/4/3 8:00,0.065527,0,0.506506,0,9.6193636,0,74.3550808,0
2004/4/3 8:15,0.062468,0,0.289961,0,9.1703024,0,42.5662748,0
2004/4/3 8:30,0.00805,0,0,0,1.18174,0,0,0
2004/4/3 8:45,0,0,0,0,0,0,0,0
2004/4/3 9:00,0,0,0,0,0,0,0,0
2004/4/3 9:15,0,0,0,0,0,0,0,0
2004/4/3 9:30,0,0,0,0,0,0,0,0
2004/4/3 9:45,0,0,0,0,0,0,0,0
2004/4/3 10:00,0,0,0,0,0,0,0,0
2004/4/3 10:15,0,0,0,0,0,0,0,0
2004/4/3 10:30,0,0,0,0,0,0,0,0
2004/4/3 10:45,0,0,0,0,0,0,0,0
2004/4/3 11:00,0,0,0,0,0,0,0,0
2004/4/3 11:15,0,0,0,0,0,0,0,0
2004/4/3 11:30,0,0,0,0,0,0,0,0
2004/4/3 11:45,0,0,0,0,0,0,0,0
2004/4/3 12:00,0,0,0,0,0,0,0,0
2004/4/3 12:15,0,0,0,0,0,0,0,0
2004/4/3 12:30,0,0,0,0,0,0,0,0
2004/4/3 12:45,0,0,0,0,0,0,0,0
2004/4/3 13:00,0,0,0,0,0,0,0,0
2004/4/3 13:15,0,0,0,0,0,0,0,0
2004/4/3 13:30,0,0,0,0,0,0,0,0
2004/4/3 13:45,0,0,0,0,0,0,0,0
2004/4/3 14:00,0,0,0,0,0,0,0,0
2004/4/3 14:15,0,0,0,0,0,0,0,0
2004/4/3 14:30,0,0,0,0,0,0,0,0
2004/4/3 14:45,0,0,0,0,0,0,0,0
2004/4/3 15:00,0,0,0,0,0,0,0,0
2004/4/3 15:15,0,0,0,0,0,0,0,0
2004/4/3 15:30,0,0,0,0,0,0,0,0
2004/4/3 15:45,0,0,0,0,0,0,0,0
2004/4/3 16:00,0,0,0,0,0,0,0,0
2004/4/3 16:15,0,0,0,0,0,0,0,0
2004/4/3 16:30,0,0,0,0,0,0,0,0
2004/4/3 16:45,0,0,0,0,0,0,0,0
2004/4/3 17:00,0,0,0,0,0,0,0,0
2004/4/3 17:15,0,0,0,0,0,0,0,0
2004/4/3 17:30,0,0,0,0,0,0,0,0
2004/4/3 17:45,0,0,0,0,0,0,0,0
2004/4/3 18:00,0,0,0,0,0,0,0,0
2004/4/3 18:15,0,0,0,0,0,0,0,0
2004/4/3 18:30,0,0,0,0,0,0,0,0
2004/4/3 18:45,0,0,0,0,0,0,0,0
2004/4/3 19:00,0,0,0,0,0,0,0,0
2004/4/3 19:15,0,0,0,0,0,0,0,0
2004/4/3 19:30,0,0,0,0,0,0,0,0
2004/4/3 19:45,0,0,0,0,0,0,0,0
2004/4/3 20:00,0,0,0,0,0,0,0,0
2004/4/3 20:15,0,0,0,0,0,0,0,0
2004/4/3 20:30,0,0,0,0,0,0,0,0
2004/4/3 20:45,0,0,0,0,0,0,0,0
2004/4/3 21:00,0,0,0,0,0,0,0,0
2004/4/3 21:15,0,0,0,0,0,0,0,0
2004/4/3 21:30,0,0,0,0,0,0,0,0
2004/4/3 21:45,0,0,0,0,0,0,0,0
2004/4/3 22:00,0,0,0,0,0,0,0,0
2004/4/3 22:15,0,0,0,0,0,0,0,0
2004/4/3 22:30,0,0,0,0,0,0,0,0
2004/4/3 22:45,0,0,0,0,0,0,0,0
2004/4/3 23:00,0,0,0,0,0,0,0,0
2004/4/3 23:15,0,0,0,0,0,0,0,0
2004/4/3 23:30,0,0,0,0,0,0,0,0
2004/4/3 23:45,0,0,0,0,0,0,0,0
2004/4/4 0:00,0,0,0,0,0,0,0,0
2004/4/4 0:15,0,0,0,0,0,0,0,0
2004/4/4 0:30,0,0,0,0,0,0,0,0
2004/4/4 0:45,0,0,0,0,0,0,0,0
2004/4/4 1:00,0,0,0,0,0,0,0,0
2004/4/4 1:15,0,0,0,0,0,0,0,0
2004/4/4 1:30,0,0,0,0,0,0,0,0
2004/4/4 1:45,0,0,0,0,0,0,0,0
2004/4/4 2:00,0,0,0,0,0,0,0,0
2004/4/4 2:15,0,0,0,0,0,0,0,0
2004/4/4 2:30,0,0,0,0,0,0,0,0
2004/4/4 2:45,0,0,0,0,0,0,0,0
2004/4/4 3:00,0,0,0,0,0,0,0,0
2004/4/4 3:15,0,0,0,0,0,0,0,0
2004/4/4 3:30,0,0,0,0,0,0,0,0
2004/4/4 3:45,0,0,0,0,0,0,0,0
2004/4/4 4:00,0,0,0,0,0,0,0,0
2004/4/4 4:15,0,0,0,0,0,0,0,0
2004/4/4 4:30,0,0,0,0,0,0,0,0
2004/4/4 4:45,0,0,0,0,0,0,0,0
2004/4/4 5:00,0,0,0,0,0,0,0,0
2004/4/4 5:15,0,0,0,0,0,0,0,0
2004/4/4 5:30,0,0,0,0,0,0,0,0
2004/4/4 5:45,0,0,0,0,0,0,0,0
2004/4/4 6:00,0,0,0,0,0,0,0,0
2004/4/4 6:15,0,0,0,0,0,0,0,0
2004/4/4 6:30,0,0,0,0,0,0,0,0
2004/4/4 6:45,0,0,0,0,0,0,0,0
2004/4/4 7:00,0,0,0,0,0,0,0,0
2004/4/4 7:15,0,0,0,0,0,0,0,0
2004/4/4 7:30,0,0,0,0,0,0,0,0
2004/4/4 7:45,0,0,0,0,0,0,0,0
2004/4/4 8:00,0,0,0,0,0,0,0,0
2004/4/4 8:15,0,0,0,0,0,0,0,0
2004/4/4 8:30,0,0,0,0,0,0,0,0
2004/4/4 8:45,0,0,0,0,0,0,0,0
2004/4/4 9:00,0,0,0,0,0,0,0,0
2004/4/4 9:15,0,0,0,0,0,0,0,0
2004/4/4 9:30,0,0,0,0,0,0,0,0
2004/4/4 9:45,0,0,0,0,0,0,0,0
2004/4/4 10:00,0,0,0,0,0,0,0,0
2004/4/4 10:15,0,0,0,0,0,0,0,0
2004/4/4 10:30,0,0,0,0,0,0,0,0
2004/4/4 10:45,0,0,0,0,0,0,0,0
2004/4/4 11:00,0,0,0,0,0,0,0,0
2004/4/4 11:15,0,0,0,0,0,0,0,0
2004/4/4 11:30,0,0,0,0,0,0,0,0
2004/4/4 11:45,0,0,0,0,0,0,0,0
2004/4/4 12:00,0,0,0,0,0,0,0,0
2004/4/4 12:15,0,0,0,0,0,0,0,0
2004/4/4 12:30,0,0,0,0,0,0,0,0
2004/4/4 12:45,0,0,0,0,0,0,0,0
2004/4/4 13:00,0,0,0,0,0,0,0,0
2004/4/4 13:15,0,0,0,0,0,0,0,0
2004/4/4 13:30,0,0,0,0,0,0,0,0
2004/4/4 13:45,0,0,0,0,0,0,0,0
2004/4/4 14:00,0,0,0,0,0,0,0,0
2004/4/4 14:15,0,0,0,0,0,0,0,0
2004/4/4 14:30,0,0,0,0,0,0,0,0
2004/4/4 14:45,0,0,0,0,0,0,0,0
2004/4/4 15:00,0,0,0,0,0,0,0,0
2004/4/4 15:15,0,0,0,0,0,0,0,0
2004/4/4 15:30,0,0,0,0,0,0,0,0
2004/4/4 15:45,0,0,0,0,0,0,0,0
2004/4/4 16:00,0,0,0,0,0,0,0,0
2004/4/4 16:15,0,0,0,0,0,0,0,0
2004/4/4 16:30,0,0,0,0,0,0,0,0
2004/4/4 16:45,0,0,0,0,0,0,0,0
2004/4/4 17:00,0,0,0,0,0,0,0,0
2004/4/4 17:15,0,0,0,0,0,0,0,0
2004/4/4 17:30,0,0,0,0,0,0,0,0
2004/4/4 17:45,0,0,0,0,0,0,0,0
2004/4/4 18:00,0,0,0,0,0,0,0,0
2004/4/4 18:15,0,0,0,0,0,0,0,0
2004/4/4 18:30,0,0,0,0,0,0,0,0
2004/4/4 18:45,0,0,0,0,0,0,0,0
2004/4/4 19:00,0,0,0,0,0,0,0,0
2004/4/4 19:15,0,0,0,0,0,0,0,0
2004/4/4 19:30,0,0,0,0,0,0,0,0
2004/4/4 19:45,0,0,0,0,0,0,0,0
2004/4/4 20:00,0,0,0,0,0,0,0,0
2004/4/4 20:15,0,0,0,0,0,0,0,0
2004/4/4 20:30,0,0,0,0,0,0,0,0
2004/4/4 20:45,0,0,0,0,0,0,0,0
2004/4/4 21:00,0,0,0,0,0,0,0,0
2004/4/4 21:15,0,0,0,0,0,0,0,0
2004/4/4 21:30,0,0,0,0,0,0,0,0
2004/4/4 21:45,0,0,0,0,0,0,0,0
2004/4/4 22:00,0,0,0,0,0,0,0,0
2004/4/4 22:15,0,0,0,0,0,0,0,0
2004/4/4 22:30,0,0,0,0,0,0,0,0
2004/4/4 22:45,0,0,0,0,0,0,0,0
2004/4/4 23:00,0,0,0,0,0,0,0,0
2004/4/4 23:15,0,0,0,0,0,0,0,0
2004/4/4 23:30,0,0,0,0,0,0,0,0
2004/4/4 23:45,0,0,0,0,0,0,0,0
2004/4/5 0:00,0,0,0,0,0,0,0,0
2004/4/5 0:15,0,0,0,0,0,0,0,0
2004/4/5 0:30,0,0,0,0,0,0,0,0
2004/4/5 0:45,0,0,0,0,0,0,0,0
2004/4/5 1:00,0,0,0,0,0,0,0,0
2004/4/5 1:15,0,0,0,0,0,0,0,0
2004/4/5 1:30,0,0,0,0,0,0,0,0
2004/4/5 1:45,0,0,0,0,0,0,0,0
2004/4/5 2:00,0,0,0,0,0,0,0,0
2004/4/5 2:15,0,0,0,0,0,0,0,0
2004/4/5 2:30,0,0,0,0,0,0,0,0
2004/4/5 2:45,0,0,0,0,0,0,0,0
2004/4/5 3:00,0,0,0,0,0,0,0,0
2004/4/5 3:15,0,0,0,0,0,0,0,0
2004/4/5 3:30,0,0,0,0,0,0,0,0
2004/4/5 3:45,0,0,0,0,0,0,0,0
2004/4/5 4:00,0,0,0,0,0,0,0,0
2004/4/5 4:15,0,0,0,0,0,0,0,0
2004/4/5 4:30,0,0,0,0,0,0,0,0
2004/4/5 4:45,0,0,0,0,0,0,0,0
2004/4/5 5:00,0,0,0,0,0,0,0,0
2004/4/5 5:15,0,0,0,0,0,0,0,0
2004/4/5 5:30,0,0,0,0,0,0,0,0
2004/4/5 5:45,0,0,0,0,0,0,0,0
2004/4/5 6:00,0,0,0,0,0,0,0,0
2004/4/5 6:15,0,0,0,0,0,0,0,0
2004/4/5 6:30,0,0,0,0,0,0,0,0
2004/4/5 6:45,0,0,0,0,0,0,0,0
2004/4/5 7:00,0,0,0,0,0,0,0,0
2004/4/5 7:15,0,0,0,0,0,0,0,0
2004/4/5 7:30,0,0,0,0,0,0,0,0
2004/4/5 7:45,0,0,0,0,0,0,0,0
2004/4/5 8:00,0,0,0,0,0,0,0,0
2004/4/5 8:15,0,0,0,0,0,0,0,0
2004/4/5 8:30,0,0,0,0,0,0,0,0
2004/4/5 8:45,0,0,0,0,0,0,0,0
2004/4/5 9:00,0,0,0,0,0,0,0,0
2004/4/5 9:15,0,0,0,0,0,0,0,0
2004/4/5 9:30,0,0,0,0,0,0,0,0
2004/4/5 9:45,0,0,0,0,0,0,0,0
2004/4/5 10:00,0,0,0,0,0,0,0,0
2004/4/5 10:15,0,0,0,0,0,0,0,0
2004/4/5 10:30,0,0,0,0,0,0,0,0
2004/4/5 10:45,0,0,0,0,0,0,0,0
2004/4/5 11:00,0,0,0,0,0,0,0,0
2004/4/5 11:15,0,0,0,0,0,0,0,0
2004/4/5 11:30,0,0,0,0,0,0,0,0
2004/4/5 11:45,0,0,0,0,0,0,0,0
2004/4/5 12:00,0,0,0,0,0,0,0,0
2004/4/5 12:15,0,0,0,0,0,0,0,0
2004/4/5 12:30,0,0,0,0,0,0,0,0
2004/4/5 12:45,0,0,0,0,0,0,0,0
2004/4/5 13:00,0,0,0,0,0,0,0,0
2004/4/5 13:15,0,0,0,0,0,0,0,0
2004/4/5 13:30,0,0,0,0,0,0,0,0
2004/4/5 13:45,0,0,0,0,0,0,0,0
2004/4/5 14:00,0,0,0,0,0,0,0,0
2004/4/5 14:15,0,0,0,0,0,0,0,0
2004/4/5 14:30,0,0,0,0,0,0,0,0
2004/4/5 14:45,0,0,0,0,0,0,0,0
2004/4/5 15:00,0,0,0,0,0,0,0,0
2004/4/5 15:15,0,0,0,0,0,0,0,0
2004/4/5 15:30,0,0,0,0,0,0,0,0
2004/4/5 15:45,0,0,0,0,0,0,0,0
2004/4/5 16:00,0,0,0,0,0,0,0,0
2004/4/5 16:15,0,0,0,0,0,0,0,0
2004/4/5 16:30,0,0,0,0,0,0,0,0
2004/4/5 16:45,0,0,0,0,0,0,0,0
2004/4/5 17:00,0,0,0,0,0,0,0,0
2004/4/5 17:15,0,0,0,0,0,0,0,0
2004/4/5 17:30,0,0,0,0,0,0,0,0
2004/4/5 17:45,0.085008,0,0,0,12.4791744,0,0,0
2004/4/5 18:00,0.065366,0,0,0,9.5957288,0,0,0
2004/4/5 18:15,0.062951,0,0,0,9.2412068,0,0,0
2004/4/5 18:30,0.065849,0,0,0,9.6666332,0,0,0
2004/4/5 18:45,0.067459,0,0,0,9.9029812,0,0,0
2004/4/5 19:00,0.064239,0,0.11592,0,9.4302852,0,17.017056,0
2004/4/5 19:15,0.061341,0,0,0,9.0048588,0,0,0
2004/4/5 19:30,0.063434,0,0,0,9.3121112,0,0,0
2004/4/5 19:45,0.062146,0,0,0,9.1230328,0,0,0
2004/4/5 20:00,0.062629,0,0,0,9.1939372,0,0,0
2004/4/5 20:15,0.059731,0,0,0,8.7685108,0,0,0
2004/4/5 20:30,0.060214,0,0,0,8.8394152,0,0,0
2004/4/5 20:45,0.061663,0,0,0,9.0521284,0,0,0
2004/4/5 21:00,0.0644,0,0.187243,0,9.45392,0,27.4872724,0
2004/4/5 21:15,0.064722,0,0.540155,0,9.5011896,0,79.294754,0
2004/4/5 21:30,0.056672,0,0.039606,0,8.3194496,0,5.8141608,0
2004/4/5 21:45,0.060536,0,0,0,8.8866848,0,0,0
2004/4/5 22:00,0.063595,0,0.302519,0,9.335746,0,44.4097892,0
2004/4/5 22:15,0.063595,0,0,0,9.335746,0,0,0
2004/4/5 22:30,0.059248,0,0,0,8.6976064,0,0,0
2004/4/5 22:45,0.058926,0,0,0,8.6503368,0,0,0
2004/4/5 23:00,0.0644,0,0,0,9.45392,0,0,0
2004/4/5 23:15,0.063434,0,0,0,9.3121112,0,0,0
2004/4/5 23:30,0.06118,0,0,0,8.981224,0,0,0
2004/4/5 23:45,0.058926,0,0,0,8.6503368,0,0,0
2004/4/6 0:00,0.062629,0,0,0,9.1939372,0,0,0
2004/4/6 0:15,0.008694,0,0.092092,0,1.2762792,0,13.5191056,0
2004/4/6 0:30,0.000161,0,0.07567,0,0.0236348,0,11.108356,0
2004/4/6 0:45,0,0,0,0,0,0,0,0
2004/4/6 1:00,0,0,0,0,0,0,0,0
2004/4/6 1:15,0,0,0,0,0,0,0,0
2004/4/6 1:30,0,0,0,0,0,0,0,0
2004/4/6 1:45,0,0,0,0,0,0,0,0
2004/4/6 2:00,0,0,0,0,0,0,0,0
2004/4/6 2:15,0,0,0,0,0,0,0,0
2004/4/6 2:30,0,0,0,0,0,0,0,0
2004/4/6 2:45,0,0,0,0,0,0,0,0
2004/4/6 3:00,0,0,0,0,0,0,0,0
2004/4/6 3:15,0,0,0,0,0,0,0,0
2004/4/6 3:30,0,0,0,0,0,0,0,0
2004/4/6 3:45,0,0,0,0,0,0,0,0
2004/4/6 4:00,0,0,0,0,0,0,0,0
2004/4/6 4:15,0,0,0,0,0,0,0,0
2004/4/6 4:30,0,0,0,0,0,0,0,0
2004/4/6 4:45,0,0,0,0,0,0,0,0
2004/4/6 5:00,0,0,0,0,0,0,0,0
2004/4/6 5:15,0,0,0,0,0,0,0,0
2004/4/6 5:30,0,0,0,0,0,0,0,0
2004/4/6 5:45,0,0,0,0,0,0,0,0
2004/4/6 6:00,0.052647,0,0,0,7.7285796,0,0,0
2004/4/6 6:15,0.068103,0,0,0,9.9975204,0,0,0
2004/4/6 6:30,0.063595,0,0,0,9.335746,0,0,0
2004/4/6 6:45,0.064239,0,0,0,9.4302852,0,0,0
2004/4/6 7:00,0.066493,0,0.134274,0,9.7611724,0,19.7114232,0
2004/4/6 7:15,0.060697,0,0,0,8.9103196,0,0,0
2004/4/6 7:30,0.061341,0,0.02254,0,9.0048588,0,3.308872,0
2004/4/6 7:45,0.059731,0,0,0,8.7685108,0,0,0
2004/4/6 8:00,0.062951,0,0,0,9.2412068,0,0,0
2004/4/6 8:15,0.063273,0,0.224273,0,9.2884764,0,32.9232764,0
2004/4/6 8:30,0.032361,0,0,0,4.7505948,0,0,0
2004/4/6 8:45,0,0,0,0,0,0,0,0
2004/4/6 9:00,0,0,0,0,0,0,0,0
2004/4/6 9:15,0,0,0,0,0,0,0,0
2004/4/6 9:30,0,0,0,0,0,0,0,0
2004/4/6 9:45,0,0,0,0,0,0,0,0
2004/4/6 10:00,0,0,0,0,0,0,0,0
2004/4/6 10:15,0,0,0,0,0,0,0,0
2004/4/6 10:30,0,0,0,0,0,0,0,0
2004/4/6 10:45,0,0,0,0,0,0,0,0
2004/4/6 11:00,0,0,0,0,0,0,0,0
2004/4/6 11:15,0,0,0,0,0,0,0,0
2004/4/6 11:30,0,0,0,0,0,0,0,0
2004/4/6 11:45,0,0,0,0,0,0,0,0
2004/4/6 12:00,0,0,0,0,0,0,0,0
2004/4/6 12:15,0,0,0,0,0,0,0,0
2004/4/6 12:30,0,0,0,0,0,0,0,0
2004/4/6 12:45,0,0,0,0,0,0,0,0
2004/4/6 13:00,0,0,0,0,0,0,0,0
2004/4/6 13:15,0,0,0,0,0,0,0,0
2004/4/6 13:30,0,0,0,0,0,0,0,0
2004/4/6 13:45,0,0,0,0,0,0,0,0
2004/4/6 14:00,0,0,0,0,0,0,0,0
2004/4/6 14:15,0,0,0,0,0,0,0,0
2004/4/6 14:30,0,0,0,0,0,0,0,0
2004/4/6 14:45,0,0,0,0,0,0,0,0
2004/4/6 15:00,0,0,0,0,0,0,0,0
2004/4/6 15:15,0,0,0,0,0,0,0,0
2004/4/6 15:30,0,0,0,0,0,0,0,0
2004/4/6 15:45,0,0,0,0,0,0,0,0
2004/4/6 16:00,0,0,0,0,0,0,0,0
2004/4/6 16:15,0,0,0,0,0,0,0,0
2004/4/6 16:30,0,0,0,0,0,0,0,0
2004/4/6 16:45,0,0,0,0,0,0,0,0
2004/4/6 17:00,0,0,0,0,0,0,0,0
2004/4/6 17:15,0,0,0,0,0,0,0,0
2004/4/6 17:30,0,0,0,0,0,0,0,0
2004/4/6 17:45,0,0,0,0,0,0,0,0
2004/4/6 18:00,0,0,0,0,0,0,0,0
2004/4/6 18:15,0,0,0,0,0,0,0,0
2004/4/6 18:30,0,0,0,0,0,0,0,0
2004/4/6 18:45,0,0,0,0,0,0,0,0
2004/4/6 19:00,0,0,0,0,0,0,0,0
2004/4/6 19:15,0,0,0,0,0,0,0,0
2004/4/6 19:30,0,0,0,0,0,0,0,0
2004/4/6 19:45,0,0,0,0,0,0,0,0
2004/4/6 20:00,0,0,0,0,0,0,0,0
2004/4/6 20:15,0,0,0,0,0,0,0,0
2004/4/6 20:30,0,0,0,0,0,0,0,0
2004/4/6 20:45,0,0,0,0,0,0,0,0
2004/4/6 21:00,0,0,0,0,0,0,0,0
2004/4/6 21:15,0.076958,0,0,0,11.2974344,0,0,0
2004/4/6 21:30,0.06279,0,0,0,9.217572,0,0,0
2004/4/6 21:45,0.055545,0,0,0,8.154006,0,0,0
2004/4/6 22:00,0.054096,0,0,0,7.9412928,0,0,0
2004/4/6 22:15,0.05796,0,0,0,8.508528,0,0,0
2004/4/6 22:30,0.055062,0,0,0,8.0831016,0,0,0
2004/4/6 22:45,0.018998,0,0,0,2.7889064,0,0,0
2004/4/6 23:00,0,0,0,0,0,0,0,0
2004/4/6 23:15,0,0,0,0,0,0,0,0
2004/4/6 23:30,0,0,0,0,0,0,0,0
2004/4/6 23:45,0,0,0,0,0,0,0,0
2004/4/7 0:00,0,0,0,0,0,0,0,0
2004/4/7 0:15,0,0,0,0,0,0,0,0
2004/4/7 0:30,0,0,0,0,0,0,0,0
2004/4/7 0:45,0,0,0,0,0,0,0,0
2004/4/7 1:00,0,0,0,0,0,0,0,0
2004/4/7 1:15,0.005313,0,0.133791,0,0.7799484,0,19.6405188,0
2004/4/7 1:30,0,0,0,0,0,0,0,0
2004/4/7 1:45,0,0,0,0,0,0,0,0
2004/4/7 2:00,0,0,0,0,0,0,0,0
2004/4/7 2:15,0,0,0,0,0,0,0,0
2004/4/7 2:30,0,0,0,0,0,0,0,0
2004/4/7 2:45,0,0,0,0,0,0,0,0
2004/4/7 3:00,0,0,0,0,0,0,0,0
2004/4/7 3:15,0,0,0,0,0,0,0,0
2004/4/7 3:30,0,0,0,0,0,0,0,0
2004/4/7 3:45,0,0,0,0,0,0,0,0
2004/4/7 4:00,0,0,0,0,0,0,0,0
2004/4/7 4:15,0,0,0,0,0,0,0,0
2004/4/7 4:30,0.050554,0,0,0,7.4213272,0,0,0
2004/4/7 4:45,0.060858,0,0,0,8.9339544,0,0,0
2004/4/7 5:00,0.063434,0,0,0,9.3121112,0,0,0
2004/4/7 5:15,0.061663,0,0,0,9.0521284,0,0,0
2004/4/7 5:30,0.055062,0,0,0,8.0831016,0,0,0
2004/4/7 5:45,0.063112,0,0,0,9.2648416,0,0,0
2004/4/7 6:00,0.058282,0,0,0,8.5557976,0,0,0
2004/4/7 6:15,0.058604,0,0,0,8.6030672,0,0,0
2004/4/7 6:30,0.058604,0,0,0,8.6030672,0,0,0
2004/4/7 6:45,0.007084,0,0.556094,0,1.0399312,0,81.6345992,0
2004/4/7 7:00,0.000161,0,0.279496,0,0.0236348,0,41.0300128,0
2004/4/7 7:15,0,0,0,0,0,0,0,0
2004/4/7 7:30,0,0,0,0,0,0,0,0
2004/4/7 7:45,0,0,0,0,0,0,0,0
2004/4/7 8:00,0,0,0,0,0,0,0,0
2004/4/7 8:15,0,0,0,0,0,0,0,0
2004/4/7 8:30,0,0,0.060375,0,0,0,8.86305,0
2004/4/7 8:45,0,0,0,0,0,0,0,0
2004/4/7 9:00,0,0,0,0,0,0,0,0
2004/4/7 9:15,0,0,0,0,0,0,0,0
2004/4/7 9:30,0,0,0,0,0,0,0,0
2004/4/7 9:45,0,0,0,0,0,0,0,0
2004/4/7 10:00,0,0,0,0,0,0,0,0
2004/4/7 10:15,0,0,0,0,0,0,0,0
2004/4/7 10:30,0,0,0,0,0,0,0,0
2004/4/7 10:45,0,0,0,0,0,0,0,0
2004/4/7 11:00,0,0,0,0,0,0,0,0
2004/4/7 11:15,0,0,0,0,0,0,0,0
2004/4/7 11:30,0,0,0,0,0,0,0,0
2004/4/7 11:45,0,0,0,0,0,0,0,0
2004/4/7 12:00,0,0,0,0,0,0,0,0
2004/4/7 12:15,0,0,0,0,0,0,0,0
2004/4/7 12:30,0,0,0,0,0,0,0,0
2004/4/7 12:45,0,0,0,0,0,0,0,0
2004/4/7 13:00,0,0,0,0,0,0,0,0
2004/4/7 13:15,0,0,0,0,0,0,0,0
2004/4/7 13:30,0,0,0,0,0,0,0,0
2004/4/7 13:45,0,0,0,0,0,0,0,0
2004/4/7 14:00,0,0,0,0,0,0,0,0
2004/4/7 14:15,0,0,0,0,0,0,0,0
2004/4/7 14:30,0,0,0,0,0,0,0,0
2004/4/7 14:45,0,0,0,0,0,0,0,0
2004/4/7 15:00,0,0,0,0,0,0,0,0
2004/4/7 15:15,0,0,0,0,0,0,0,0
2004/4/7 15:30,0,0,0,0,0,0,0,0
2004/4/7 15:45,0,0,0,0,0,0,0,0
2004/4/7 16:00,0,0,0,0,0,0,0,0
2004/4/7 16:15,0,0,0,0,0,0,0,0
2004/4/7 16:30,0,0,0,0,0,0,0,0
2004/4/7 16:45,0,0,0,0,0,0,0,0
2004/4/7 17:00,0,0,0,0,0,0,0,0
2004/4/7 17:15,0,0,0,0,0,0,0,0
2004/4/7 17:30,0,0,0,0,0,0,0,0
2004/4/7 17:45,0,0,0,0,0,0,0,0
2004/4/7 18:00,0,0,0,0,0,0,0,0
2004/4/7 18:15,0,0,0,0,0,0,0,0
2004/4/7 18:30,0,0,0,0,0,0,0,0
2004/4/7 18:45,0,0,0,0,0,0,0,0
2004/4/7 19:00,0,0,0,0,0,0,0,0
2004/4/7 19:15,0,0,0,0,0,0,0,0
2004/4/7 19:30,0,0,0,0,0,0,0,0
2004/4/7 19:45,0,0,0,0,0,0,0,0
2004/4/7 20:00,0,0,0,0,0,0,0,0
2004/4/7 20:15,0,0,0,0,0,0,0,0
2004/4/7 20:30,0,0,0,0,0,0,0,0
2004/4/7 20:45,0.091448,0,0,0,13.4245664,0,0,0
2004/4/7 21:00,0.055867,0,0,0,8.2012756,0,0,0
2004/4/7 21:15,0.05957,0,0,0,8.744876,0,0,0
2004/4/7 21:30,0.05313,0,0,0,7.799484,0,0,0
2004/4/7 21:45,0.052808,0,0,0,7.7522144,0,0,0
2004/4/7 22:00,0.042504,0,0,0,6.2395872,0,0,0
2004/4/7 22:15,0.036386,0,0,0,5.3414648,0,0,0
2004/4/7 22:30,0.021735,0,0,0,3.190698,0,0,0
2004/4/7 22:45,0.054096,0,0,0,7.9412928,0,0,0
2004/4/7 23:00,0.040572,0,0,0,5.9559696,0,0,0
2004/4/7 23:15,0.014007,0,0,0,2.0562276,0,0,0
2004/4/7 23:30,0.017549,0,0,0,2.5761932,0,0,0
2004/4/7 23:45,0.040894,0,0,0,6.0032392,0,0,0
2004/4/8 0:00,0.05635,0,0,0,8.27218,0,0,0
2004/4/8 0:15,0,0,0,0,0,0,0,0
2004/4/8 0:30,0,0,0,0,0,0,0,0
2004/4/8 0:45,0,0,0,0,0,0,0,0
2004/4/8 1:00,0,0,0,0,0,0,0,0
2004/4/8 1:15,0,0,0,0,0,0,0,0
2004/4/8 1:30,0,0,0,0,0,0,0,0
2004/4/8 1:45,0,0,0,0,0,0,0,0
2004/4/8 2:00,0,0,0,0,0,0,0,0
2004/4/8 2:15,0,0,0,0,0,0,0,0
2004/4/8 2:30,0,0,0,0,0,0,0,0
2004/4/8 2:45,0,0,0,0,0,0,0,0
2004/4/8 3:00,0,0,0,0,0,0,0,0